World > North America > United States > Connecticut
Hourly regional weather for Guilford, ConnecticutGuilford, Connecticut Regional Hourly Weather

Guilford, Connecticut Regional Weather

regional weather guilford, ctHOURLY REGIONAL WEATHER FOR GUILFORD, CT
Lat: 41.28N, Lon: 72.68W 
Web Search

Helpful Tip: You can add this page to Bookmarks by pressing the Ctrl key & d key at the same time. Mac users press command & d.

Feedback


°F Click to change Guilford hourly weather to Imperial units.Click to change Guilford hourly weather to Metric units. °C
Guilford Weather Map
UTC Time: 7/23/2021, 22:35
Your Time:

Guilford, CT Regional Weather

Expires:202107232300;;343016
ASUS41 KOKX 232214
RWROKX

Regional Weather Roundup
National Weather Service New York NY
600 PM EDT FRI JUL 23 2021

Note: "FAIR" indicates few or no clouds below 12,000 feet with no
significant weather and/or obstructions to visibility.


CTZ002-004>006-009-010-012-RIZ004-006-007-MAZ004-011-015-232300-
Southern New England

 In CT
  
CITY           SKY/WX    TMP DP  RH WIND       PRES   REMARKS
Bradley Intl   PTSUNNY   74  58  57 E6        30.07R                  
Hartford       CLOUDY    74  55  51 NW13G25   30.07R                  
Danbury        MOSUNNY   80  54  40 VRB5      30.09F                  
Wtrbury/Oxford MOSUNNY   77  55  46 NW7       30.10S                  
Norwalk Harbor   N/A     79 N/A N/A NW9         N/A                   
Bridgeport     MOSUNNY   82  53  36 N9        30.06F                  
Meriden        MOSUNNY   81  53  37 NW6       30.05F                  
New Haven      MOSUNNY   79  61  53 S9        30.06F                  
Chester        FAIR      79  59  50 SW6       30.07S                  
Groton         SUNNY     76  58  53 W12       30.05S                  
Willimantic    LGT RAIN  67  57  70 W8G21     30.09R                  

 In RI
  
CITY           SKY/WX    TMP DP  RH WIND       PRES   REMARKS
Providence     TSTM      70  61  73 SE14      30.07R                  
Block Island   LGT RAIN  70  63  78 NE6       30.09R                  
Westerly       CLOUDY    76  60  57 VRB7      30.06R                  
 
In MA
  
CITY           SKY/WX    TMP DP  RH WIND       PRES   REMARKS
Boston         PTSUNNY   75  57  53 E7        30.06S                  
Worcester      MOSUNNY   75  52  44 NW3       30.10S                  
Westfield      MOSUNNY   73  65  75 SE3       30.06F                  
Provincetown   SUNNY     75  57  53 CALM      30.07S                  
Nantucket      SUNNY     78  55  44 E6        30.06F                  
$$


SKY/WX - Weather  TMP - Temperature  DP - Dew Point  RH - Relative Humidity
WIND - Wind Direction/Speed PRES - Barometric Pressure VSB - Visibility
WCI - Wind Chill Index E13G22 Wind - East Wind 13 mph/Gusts of 22 mph